sat.trackr.live / text

‹ back to catalog

STARLINK-11103 [DTC]

NORAD 59718 · 2024-088L

PAYLOAD ACTIVE UNKNOWN

§ Identity

Operator
Country
US
Launch date
2024-05-10
Launch site
AFWTR
Launch vehicle
Mass (kg)
RCS (m²)

Purposes: comms

External: N2YO · Heavens-Above · Gunter

§ Orbital elements

Epoch: 2026-05-24T18:22:52.425120Z

Period
91.74 min
Inclination
53.1582°
Eccentricity
0.0000620
Mean motion
15.69709098 rev/d
Perigee alt
359.3 km
Apogee alt
360.1 km
Semi-major
6,737.9 km
B*
6.9871e-6
RAAN
311.0356°
Arg perigee
74.9450°
Mean anomaly
285.1637°
Rev number
11,822

§ Raw data

STARLINK-11103 [DTC]1 59718U 24088L   26144.76588455  .00000259  00000+0  69871-5 0  99982 59718  53.1582 311.0356 0000620  74.9450 285.1637 15.69709098118222

JSON: /api/v1/satellites/59718 · /tle

For live sub-satellite position, see the globe view (requires WebGL).

§ Visibility from observer

Set your observer location to see the next 7 days of passes ≥ 10°. The values pass through the URL so the page stays shareable.

No JS? Fill the form by hand. The geolocation button needs JavaScript.